User: anonymous   Login
Location: Newark
(14.9306°N, 3.4333°E)
Time: 16:07:28
(UTC+00:00)
Language:

First-Move - Orbit

View from above orbital plane
View from above orbital plane
View from above satellite
View from above satellite

Ground track
Ground track

The orbit data is extracted from the following two-line orbital elements,

1 39439U 13066Z   19348.83435338 +.00000318 +00000-0 +45037-4 0  9991
2 39439 097.5690 352.4780 0065697 165.5230 194.7886 14.81977304326389
Epoch (UTC): 14 December 2019 20:01:28
Eccentricity: 0.0065697
inclination: 97.5690°
perigee height: 577 km
apogee height: 669 km
right ascension of ascending node: 352.4780°
argument of perigee: 165.5230°
revolutions per day: 14.81977304
mean anomaly at epoch: 194.7886°
orbit number at epoch: 32638

The dashed part of the orbit path shows where the satellite is in the earth's shadow,  

DLR